Content
SEND FEEDBACK

Daily
Averages
Monthly
Summary
Turkmenistan

ASHGABAT, TURKMENISTAN


Home > Asia > Turkmenistan
Elevation: 775 feet     Latitude: 37 58N     Longitude: 058 20E

WEATHER
 
SELECT A DAY
Number of Records: 182,292;   Date Range: 3/15/97 - 11/20/14
 
SHARE

PRINT THIS DATA

[ ← Previous Day ]
WEATHER ALMANAC - JUNE 26, 2013
[ Next Day → ]
[ °C ]   °F
We're sorry. There is no daily almanac available for Ashgabat, Turkmenistan on June 26, 2013.
WEATHER BY HOUR - JUNE 26, 2013
[ °C ]   °F
Local TimeTemperatureDewpointHumidityBarometerVisibilityWind DirectionWind SpeedGust SpeedPrecipitationEventsConditions
1:00 AM80.6 °F46.4 °F30 %29.71 in6.2 miSW (230°)6.7 mphScattered Clouds
2:00 AM79.0 °F52.0 °F29 %29.70 in6.0 miSW (220°)4.5 mphPartly Cloudy
2:00 AM78.8 °F46.4 °F32 %29.71 in6.2 miSW (220°)4.5 mphScattered Clouds
3:00 AM78.8 °F46.4 °F32 %29.71 in6.2 miVariable2.2 mphMostly Cloudy
4:00 AM77.0 °F46.4 °F34 %29.71 in6.2 miWest (260°)6.7 mphPartly Cloudy
5:00 AM78.8 °F46.4 °F32 %29.71 in6.2 miWSW (240°)6.7 mphScattered Clouds
5:00 AM76.0 °F54.0 °F35 %29.70 in6.0 miSW (230°)6.7 mphPartly Cloudy
6:00 AM78.8 °F48.2 °F34 %29.74 in6.2 miWSW (250°)6.7 mphMostly Cloudy
7:00 AM80.6 °F53.6 °F39 %29.74 in6.2 miWNW (290°)13.4 mphMostly Cloudy
8:00 AM84.2 °F57.2 °F40 %29.77 in6.2 miWNW (290°)15.7 mphMostly Cloudy
8:00 AM83.0 °F60.0 °F35 %29.74 in6.0 miWNW (290°)15.7 mphPartly Cloudy
9:00 AM86.0 °F59.0 °F40 %29.77 in6.2 miWNW (300°)15.7 mphMostly Cloudy
10:00 AM87.8 °F55.4 °F33 %29.77 in6.2 miWest (280°)15.7 mphScattered Clouds
11:00 AM90.0 °F54.0 °F20 %29.74 in6.0 miWNW (290°)13.4 mphPartly Cloudy
11:00 AM89.6 °F53.6 °F29 %29.77 in6.2 miWNW (300°)13.4 mphScattered Clouds
12:00 PM93.2 °F51.8 °F24 %29.77 in6.2 miNW (310°)11.2 mphScattered Clouds
1:00 PM95.0 °F50.0 °F22 %29.74 in6.2 miNNW (330°)11.2 mphScattered Clouds
2:00 PM96.8 °F46.4 °F18 %29.74 in6.2 miWNW (300°)6.7 mphPartly Cloudy
2:00 PM94.0 °F57.0 °F20 %29.71 in6.0 miWNW (290°)8.9 mphScattered Clouds
3:00 PM98.6 °F48.2 °F18 %29.74 in6.2 miWNW (300°)11.2 mphPartly Cloudy
3:30 PM98.6 °F46.4 °F17 %29.71 in6.2 miNNE (30°)2.2 mph17.9 mphPartly Cloudy
4:00 PM100.4 °F46.4 °F16 %29.74 in6.2 miWNW (290°)13.4 mphScattered Clouds
5:00 PM100.0 °F57.0 °F15 %29.69 in6.0 miNW (310°)11.2 mphMostly Cloudy
5:00 PM100.4 °F46.4 °F16 %29.71 in6.2 miWNW (300°)11.2 mphMostly Cloudy
6:00 PM98.6 °F46.4 °F17 %29.71 in6.2 miWest (280°)13.4 mphMostly Cloudy
7:00 PM96.8 °F50.0 °F20 %29.71 in6.2 miWNW (290°)15.7 mphMostly Cloudy
7:30 PM95.0 °F51.8 °F23 %29.71 in6.2 miWNW (290°)15.7 mphMostly Cloudy
8:00 PM94.0 °F56.0 °F18 %29.70 in6.0 miWNW (290°)15.7 mphOvercast
8:00 PM95.0 °F50.0 °F22 %29.74 in6.2 miWNW (290°)15.7 mphOvercast
8:30 PM93.2 °F51.8 °F24 %29.74 in6.2 miWNW (290°)15.7 mphOvercast
9:00 PM93.2 °F50.0 °F23 %29.74 in6.2 miWNW (290°)13.4 mphOvercast
9:30 PM93.2 °F50.0 °F23 %29.74 in6.2 miWNW (290°)15.7 mphOvercast
10:00 PM91.4 °F50.0 °F24 %29.77 in6.2 miWNW (290°)17.9 mphOvercast
11:00 PM90.0 °F55.0 °F21 %29.74 in6.0 miWNW (290°)13.4 mphMostly Cloudy
11:00 PM89.6 °F50.0 °F26 %29.77 in6.2 miWNW (290°)13.4 mphMostly Cloudy
Hourly data recorded from UTAA, located miles away from Ashgabat, Turkmenistan







STORIES FROM OUR PARTNERS